Retour au catalogue

USA 136

ActifMilitaireHEO
NORAD 25034·PAYLOAD·🇺🇸 United States

Lancé Nov 8, 1997 depuis Cape Canaveral Space Force Station

Loading…

Prochains Passages (prochaines 24 heures)

TLE

FraisSource: Mike McCants

Époque: Sep 14, 2026, 10:24 UTC

1 25034U 97068A   26257.43394230 -.00000208  00000-0  00000-0 0    08
2 25034  64.4359 297.6374 6316916 268.0942  23.6740  2.00646853  5290

Suivez USA 136 en temps réel avec AllMySat

Download on the App Store